Location: Bretagne
(43.8474°N, 0.4650°W)
Time: 20:44:21
(UTC+00:00)

Cosmos 1328 Rocket - Pass Details

Date: 15 January 2026
Orbit: 595 x 618 km, 82.5° (Epoch: 13 February)

Event Time Altitude Azimuth Distance (km) Brightness Sun altitude
Rises 17:36:55 0° 194° (SSW) 2,857 7.5 -8.5°
Reaches altitude 10° 17:39:08 10° 197° (SSW) 1,961 6.7 -8.9°
Maximum altitude 17:43:27 66° 280° (W) 671 4.0 -9.6°
Drops below altitude 10° 17:47:50 10° 3° (N) 1,989 5.9 -10.3°
Sets 17:50:06 0° 6° (N) 2,901 6.7 -10.7°
